N8IR-19 Weather Reports


Display with metric or nautical units.
time (UTC)temp
F
wind
direction
speed
MPH
gust
MPH
rain 1hr
in
rain 24hr
in
rain mn
in
humidity
%
barometer
mb
20260904210119 77 225 1.0 1.0 0.00 0.00 0.00 50 994.1
20260904205619 77 0 3.0 4.0 0.00 0.00 0.00 50 994.0
20260904205119 77 0 4.0 5.0 0.00 0.00 0.00 50 993.9
20260904204639 77 203 1.0 2.0 0.00 0.00 0.00 49 993.9
20260904204119 77 203 1.0 3.0 0.00 0.00 0.00 49 993.7
20260904203619 77 0.0 0.0 0.00 0.00 0.00 49 993.7
20260904203119 77 0.0 1.0 0.00 0.00 0.00 49 993.5
20260904202639 77 158 2.0 4.0 0.00 0.00 0.00 49 993.5
20260904202117 77 0.0 1.0 0.00 0.00 0.00 50 993.2
20260904201637 77 0.0 1.0 0.00 0.00 0.00 50 993.1
20260904201117 77 135 1.0 2.0 0.00 0.00 0.00 49 993.0
20260904200618 77 180 2.0 5.0 0.00 0.00 0.00 49 993.1
20260904200139 76 0.0 1.0 0.00 0.00 0.00 49 993.2
20260904195617 76 0.0 1.0 0.00 0.00 0.00 49 993.2
20260904195119 76 0.0 2.0 0.00 0.00 0.00 49 993.6
20260904194619 76 180 3.0 4.0 0.00 0.00 0.00 49 993.9
20260904194137 76 180 1.0 2.0 0.00 0.00 0.00 49 994.2
20260904193619 76 0 1.0 2.0 0.00 0.00 0.00 49 994.4
20260904193119 75 0 2.0 5.0 0.00 0.00 0.00 49 994.5
20260904192619 75 0 4.0 5.0 0.00 0.00 0.00 49 994.6
20260904192138 75 180 3.0 4.0 0.00 0.00 0.00 49 994.9
20260904191619 74 158 1.0 2.0 0.00 0.00 0.00 49 995.0
20260904191119 74 158 2.0 4.0 0.00 0.00 0.00 50 995.2
20260904190619 74 158 2.0 5.0 0.00 0.00 0.00 50 995.2
20260904190117 74 113 2.0 3.0 0.00 0.00 0.00 50 995.3
20260904185637 74 23 1.0 2.0 0.00 0.00 0.00 50 995.3
20260904185117 74 23 2.0 2.0 0.00 0.00 0.00 51 995.3
20260904184617 73 293 3.0 4.0 0.00 0.00 0.00 51 995.6
20260904184117 73 203 1.0 2.0 0.00 0.00 0.00 51 995.2
20260904183617 73 0.0 1.0 0.00 0.00 0.00 52 995.2
20260904183139 73 203 1.0 2.0 0.00 0.00 0.00 52 995.2
20260904182620 73 180 3.0 6.0 0.00 0.00 0.00 52 994.7
20260904182120 73 0 2.0 4.0 0.00 0.00 0.00 52 994.8
20260904181618 72 0 3.0 6.0 0.00 0.00 0.00 52 994.8
20260904181119 72 0 6.0 8.0 0.00 0.00 0.00 51 994.4
20260904180616 72 203 5.0 7.0 0.00 0.00 0.00 51 994.3
20260904180119 72 0 8.0 11.0 0.00 0.00 0.00 51 994.4
20260904175636 72 203 5.0 10.0 0.00 0.00 0.00 51 994.7
20260904175118 72 248 6.0 9.0 0.00 0.00 0.00 51 994.7
20260904174619 72 180 5.0 8.0 0.00 0.00 0.00 51 995.0
20260904174119 72 180 5.0 8.0 0.00 0.00 0.00 50 995.3
20260904173619 72 180 3.0 4.0 0.00 0.00 0.00 50 996.7
20260904173140 72 225 4.0 6.0 0.00 0.00 0.00 50 997.1
20260904172617 73 248 1.0 2.0 0.00 0.00 0.00 50 997.2
20260904172119 73 0 3.0 4.0 0.00 0.00 0.00 50 997.9
20260904171619 73 293 1.0 1.0 0.00 0.00 0.00 50 997.7
20260904171118 73 293 2.0 4.0 0.00 0.00 0.00 51 998.1
20260904170616 73 293 4.0 7.0 0.00 0.00 0.00 50 998.6
20260904170119 73 315 2.0 5.0 0.00 0.00 0.00 51 998.7
20260904165637 73 315 4.0 8.0 0.00 0.00 0.00 51 998.7
20260904165140 73 315 4.0 8.0 0.00 0.00 0.00 50 998.7
20260904164618 73 293 3.0 4.0 0.00 0.00 0.00 50 998.7
20260904164120 73 270 3.0 4.0 0.00 0.00 0.00 51 998.4
20260904163619 73 0 2.0 4.0 0.00 0.00 0.00 51 998.0
20260904163119 74 0 5.0 8.0 0.00 0.00 0.00 52 997.7
20260904162619 74 0 10.0 11.0 0.00 0.00 0.00 53 997.8
20260904162120 74 0 7.0 9.0 0.00 0.00 0.00 54 997.7
20260904161621 74 0 9.0 11.0 0.00 0.00 0.00 54 997.7
20260904161121 74 0 12.0 13.0 0.00 0.00 0.00 54 997.7
20260904160621 74 0 11.0 12.0 0.00 0.00 0.00 55 997.7
20260904160121 74 0 10.0 13.0 0.00 0.00 0.00 55 997.9
20260904155619 74 0 10.0 13.0 0.00 0.00 0.00 56 998.1
20260904155138 73 315 2.0 3.0 0.00 0.00 0.00 56 998.1
20260904154620 73 0 3.0 8.0 0.00 0.00 0.00 56 998.2
20260904154141 73 293 3.0 4.0 0.00 0.00 0.00 56 998.3
20260904153622 73 315 4.0 8.0 0.00 0.00 0.00 56 998.4
20260904153119 73 338 3.0 4.0 0.00 0.00 0.00 56 998.3
20260904152618 73 315 4.0 6.0 0.00 0.00 0.00 56 998.4
20260904152118 73 315 3.0 5.0 0.00 0.00 0.00 56 998.5
20260904151618 73 315 5.0 9.0 0.00 0.00 0.00 57 998.4
20260904151138 73 338 7.0 13.0 0.00 0.00 0.00 57 998.4
20260904150618 72 0 7.0 12.0 0.00 0.00 0.00 57 997.9
20260904150120 72 0 5.0 9.0 0.00 0.00 0.00 57 997.7
20260904145621 72 338 4.0 7.0 0.00 0.00 0.00 57 997.5
20260904145118 72 315 3.0 4.0 0.00 0.00 0.00 57 997.1
20260904144638 72 0 7.0 11.0 0.00 0.00 0.00 58 997.3
20260904144120 71 338 5.0 8.0 0.00 0.00 0.00 57 997.3
20260904143640 71 225 2.0 3.0 0.00 0.00 0.00 57 996.2
20260904143118 71 225 2.0 3.0 0.00 0.00 0.00 57 996.3
20260904142620 71 0 1.0 1.0 0.00 0.00 0.00 57 996.3
20260904142118 71 0 2.0 3.0 0.00 0.00 0.00 57 996.2
20260904141701 71 225 2.0 2.0 0.00 0.00 0.00 57 996.2
20260904141122 71 225 3.0 3.0 0.00 0.00 0.00 57 996.2
20260904140621 70 0 3.0 5.0 0.00 0.00 0.00 57 995.9
20260904140121 70 180 3.0 5.0 0.00 0.00 0.00 57 995.6
20260904135621 70 180 3.0 4.0 0.00 0.00 0.00 57 996.0
20260904135121 70 180 1.0 3.0 0.00 0.00 0.00 57 995.9
20260904134621 70 180 2.0 3.0 0.00 0.00 0.00 57 996.1
20260904134118 70 225 4.0 6.0 0.00 0.00 0.00 57 996.4
20260904133621 70 225 2.0 4.0 0.00 0.00 0.00 57 996.4
20260904133121 70 225 3.0 4.0 0.00 0.00 0.00 56 996.1
20260904132621 70 225 1.0 2.0 0.00 0.00 0.00 56 996.1
20260904132118 70 225 1.0 2.0 0.00 0.00 0.00 56 996.1
20260904131701 70 0.0 1.0 0.00 0.00 0.00 56 996.2
20260904131120 71 225 5.0 6.0 0.00 0.00 0.00 56 996.7
20260904130620 71 248 6.0 7.0 0.00 0.00 0.00 56 996.9
20260904130140 71 225 2.0 3.0 0.00 0.00 0.00 56 997.0
20260904125620 71 225 5.0 6.0 0.00 0.00 0.00 56 997.3
20260904125118 71 248 4.0 8.0 0.00 0.00 0.00 56 997.2
20260904124618 71 225 12.0 16.0 0.00 0.00 0.00 55 996.6
20260904124121 71 203 8.0 13.0 0.00 0.00 0.00 55 996.0
20260904123618 71 180 3.0 6.0 0.00 0.00 0.00 55 996.3
20260904123120 71 135 3.0 7.0 0.00 0.00 0.00 55 996.6
20260904122620 71 203 4.0 5.0 0.00 0.00 0.00 55 996.8
20260904122119 71 203 6.0 13.0 0.00 0.00 0.00 55 997.0
20260904121619 71 225 4.0 5.0 0.00 0.00 0.00 55 997.5
20260904121118 71 203 4.0 5.0 0.00 0.00 0.00 55 997.3
20260904120617 71 0.0 0.0 0.00 0.00 0.00 55 997.0
20260904120118 71 0.0 0.0 0.00 0.00 0.00 55 996.7
20260904115638 71 0.0 1.0 0.00 0.00 0.00 55 996.5
20260904115138 71 180 1.0 3.0 0.00 0.00 0.00 55 996.6
20260904114618 71 0.0 0.0 0.00 0.00 0.00 55 996.6
20260904114118 71 0.0 0.0 0.00 0.00 0.00 55 996.4
20260904113617 71 0.0 1.0 0.00 0.00 0.00 55 996.4
20260904113118 71 203 2.0 3.0 0.00 0.00 0.00 55 996.3
20260904112618 71 0.0 1.0 0.00 0.00 0.00 55 996.4
20260904112118 71 0.0 1.0 0.00 0.00 0.00 55 996.5
20260904111617 71 0 4.0 5.0 0.00 0.00 0.00 55 996.6
20260904111118 71 0 2.0 4.0 0.00 0.00 0.00 55 996.4
20260904110638 71 180 3.0 4.0 0.00 0.00 0.00 55 996.1
20260904110118 71 0.0 1.0 0.00 0.00 0.00 55 996.3
20260904105618 71 158 1.0 3.0 0.00 0.00 0.00 55 996.6
20260904105117 71 158 3.0 4.0 0.00 0.00 0.00 55 996.0
20260904104618 71 158 1.0 3.0 0.00 0.00 0.00 55 995.8
20260904104118 71 0.0 1.0 0.00 0.00 0.00 55 995.8
20260904103638 71 158 2.0 4.0 0.00 0.00 0.00 55 995.9
20260904103138 71 0.0 1.0 0.00 0.00 0.00 55 995.7
20260904102617 71 158 2.0 4.0 0.00 0.00 0.00 55 995.8
20260904102138 71 158 1.0 2.0 0.00 0.00 0.00 55 995.8
20260904101617 71 158 1.0 2.0 0.00 0.00 0.00 55 995.8
20260904101118 71 158 1.0 2.0 0.00 0.00 0.00 55 995.5
20260904100617 71 158 1.0 2.0 0.00 0.00 0.00 55 995.3
20260904100119 71 158 1.0 2.0 0.00 0.00 0.00 55 995.3
20260904095617 71 0.0 1.0 0.00 0.00 0.00 55 995.5
20260904095138 71 158 1.0 2.0 0.00 0.00 0.00 54 995.5
20260904094638 71 0.0 2.0 0.00 0.00 0.00 54 995.6
20260904094158 71 158 1.0 3.0 0.00 0.00 0.00 54 995.4
20260904093617 71 135 2.0 4.0 0.00 0.00 0.00 54 995.3
20260904093138 71 158 3.0 4.0 0.00 0.00 0.00 54 995.6
20260904092618 71 180 1.0 2.0 0.00 0.00 0.00 53 995.8
20260904092118 71 180 1.0 2.0 0.00 0.00 0.00 53 996.0
20260904091617 71 180 1.0 2.0 0.00 0.00 0.00 53 995.8
20260904091119 71 0.0 1.0 0.00 0.00 0.00 53 995.9
20260904090620 71 0.0 0.0 0.00 0.00 0.00 53 995.8
20260904090120 71 180 2.0 3.0 0.00 0.00 0.00 53 995.7
20260904085620 71 180 2.0 3.0 0.00 0.00 0.00 53 995.7
20260904085118 71 0.0 3.0 0.00 0.00 0.00 53 995.6
20260904084620 71 180 1.0 2.0 0.00 0.00 0.00 53 995.5
20260904084118 71 0.0 1.0 0.00 0.00 0.00 53 995.4
20260904083619 71 0.0 1.0 0.00 0.00 0.00 53 995.4
20260904083119 71 0.0 0.0 0.00 0.00 0.00 53 995.4
20260904082701 71 0.0 0.0 0.00 0.00 0.00 53 995.4
20260904082120 71 180 1.0 2.0 0.00 0.00 0.00 52 995.4
20260904081619 71 180 1.0 2.0 0.00 0.00 0.00 52 995.4
20260904081158 71 0.0 1.0 0.00 0.00 0.00 52 995.3
20260904080620 71 0.0 2.0 0.00 0.00 0.00 52 995.3
20260904080140 71 180 3.0 4.0 0.00 0.00 0.00 52 995.3
20260904075619 71 180 1.0 2.0 0.00 0.00 0.00 52 995.5
20260904075120 71 180 3.0 4.0 0.00 0.00 0.00 52 995.6
20260904074617 71 0.0 0.0 0.00 0.00 0.00 52 995.7
20260904074120 71 180 1.0 2.0 0.00 0.00 0.00 52 995.7
20260904073617 72 180 1.0 2.0 0.00 0.00 0.00 52 995.7
20260904073119 72 0.0 1.0 0.00 0.00 0.00 52 995.6
20260904072617 72 180 3.0 5.0 0.00 0.00 0.00 52 995.7
20260904072140 72 180 1.0 2.0 0.00 0.00 0.00 52 995.7
20260904071620 72 180 3.0 5.0 0.00 0.00 0.00 52 995.8
20260904071120 72 0.0 1.0 0.00 0.00 0.00 52 995.7
20260904070621 72 158 1.0 4.0 0.00 0.00 0.00 52 995.7
20260904070119 72 0.0 1.0 0.00 0.00 0.00 52 995.8
20260904065617 72 0.0 0.0 0.00 0.00 0.00 52 995.8
20260904065117 72 0.0 0.0 0.00 0.00 0.00 52 995.9
20260904064617 72 0.0 0.0 0.00 0.00 0.00 52 995.8
20260904064120 72 0.0 0.0 0.00 0.00 0.00 52 995.8
20260904063617 72 0.0 0.0 0.00 0.00 0.00 52 995.8
20260904063159 72 0.0 0.0 0.00 0.00 0.00 52 995.8
20260904062617 72 0.0 0.0 0.00 0.00 0.00 52 995.9
20260904062120 72 0.0 0.0 0.00 0.00 0.00 52 995.9
20260904061619 71 0.0 0.0 0.00 0.00 0.00 52 996.0
20260904061117 71 0.0 0.0 0.00 0.00 0.00 52 996.0
20260904060617 71 0.0 0.0 0.00 0.00 0.00 52 996.0
20260904060140 71 0.0 0.0 0.00 0.00 0.00 52 996.0
20260904055617 71 0.0 0.0 0.00 0.00 0.00 52 996.1
20260904055119 71 0.0 0.0 0.00 0.00 0.00 52 996.2
20260904054620 71 0.0 0.0 0.00 0.00 0.00 52 996.1
20260904054119 71 0.0 0.0 0.00 0.00 0.00 52 996.1
20260904053617 71 0.0 0.0 0.00 0.00 0.00 52 996.2
20260904053120 72 0.0 0.0 0.00 0.00 0.00 52 996.2
20260904052619 71 68 2.0 3.0 0.00 0.00 0.00 52 996.2
20260904052117 71 203 1.0 2.0 0.00 0.00 0.00 51 996.3
20260904051640 71 0.0 1.0 0.00 0.00 0.00 51 996.0
20260904051117 71 0.0 1.0 0.00 0.00 0.00 51 996.0
20260904050617 71 203 2.0 3.0 0.00 0.00 0.00 51 995.9
20260904050117 71 203 1.0 3.0 0.00 0.00 0.00 51 995.9
20260904045617 71 203 1.0 3.0 0.00 0.00 0.00 51 995.9
20260904045117 71 0.0 1.0 0.00 0.00 0.00 51 995.9
20260904044620 71 0.0 2.0 0.00 0.00 0.00 50 995.8
20260904044119 71 0 2.0 4.0 0.00 0.00 0.00 50 995.8
20260904043620 71 203 1.0 3.0 0.00 0.00 0.00 50 995.8
20260904043139 71 0 2.0 5.0 0.00 0.00 0.00 50 995.8
20260904042619 71 203 2.0 5.0 0.00 0.00 0.00 50 995.7
20260904042141 72 0 4.0 5.0 0.00 0.00 0.00 50 995.8
20260904041619 72 0 2.0 4.0 0.00 0.00 0.00 50 995.8
20260904041119 71 225 3.0 4.0 0.00 0.00 0.00 50 995.7
20260904040619 72 248 4.0 5.0 0.00 0.00 0.00 50 995.7
20260904040119 71 248 2.0 3.0 0.00 0.00 0.00 50 995.7
20260904035620 71 0.0 1.0 0.00 0.00 0.00 50 995.9
20260904035120 71 0.0 0.0 0.00 0.00 0.00 50 995.8
20260904034619 71 293 1.0 2.0 0.00 0.00 0.00 50 995.8
20260904034117 72 293 1.0 3.0 0.00 0.00 0.00 50 995.6
20260904033617 72 0.0 1.0 0.00 0.00 0.00 50 995.8
20260904033139 72 293 1.0 2.0 0.00 0.00 0.00 50 995.7
20260904032637 72 338 1.0 2.0 0.00 0.00 0.00 51 995.8
20260904032120 72 0 4.0 6.0 0.00 0.00 0.00 50 995.4
20260904031620 72 0 2.0 4.0 0.00 0.00 0.00 50 995.4
20260904031120 72 225 1.0 3.0 0.00 0.00 0.00 50 995.4
20260904030619 72 203 3.0 5.0 0.00 0.00 0.00 50 995.4
20260904030117 72 0 3.0 6.0 0.00 0.00 0.00 50 995.3
20260904025620 72 203 2.0 4.0 0.00 0.00 0.00 50 995.1
20260904025140 72 203 2.0 5.0 0.00 0.00 0.00 50 995.2
20260904024620 72 203 2.0 3.0 0.00 0.00 0.00 50 995.2
20260904024117 72 180 1.0 2.0 0.00 0.00 0.00 50 995.2
20260904023621 72 158 1.0 3.0 0.00 0.00 0.00 50 995.2
20260904023117 72 180 2.0 3.0 0.00 0.00 0.00 50 995.1
20260904022639 72 203 1.0 3.0 0.00 0.00 0.00 50 995.1
20260904022137 72 203 1.0 2.0 0.00 0.00 0.00 50 995.1
20260904021618 72 180 3.0 5.0 0.00 0.00 0.00 50 995.1
20260904021119 72 203 2.0 8.0 0.00 0.00 0.00 50 995.0
20260904020619 72 180 3.0 5.0 0.00 0.00 0.00 50 995.0
20260904020140 72 180 2.0 4.0 0.00 0.00 0.00 50 995.1
20260904015619 72 180 2.0 3.0 0.00 0.00 0.00 50 995.0
20260904015158 72 203 3.0 5.0 0.00 0.00 0.00 50 994.8
20260904014619 72 203 2.0 4.0 0.00 0.00 0.00 50 994.8
20260904014117 72 203 4.0 6.0 0.00 0.00 0.00 50 994.7
20260904013617 72 203 3.0 5.0 0.00 0.00 0.00 50 994.8
20260904013119 72 180 4.0 6.0 0.00 0.00 0.00 50 994.8
20260904012617 72 0 3.0 8.0 0.00 0.00 0.00 50 994.7
20260904012116 72 180 3.0 6.0 0.00 0.00 0.00 50 994.7
20260904011641 72 180 5.0 10.0 0.00 0.00 0.00 50 994.7
20260904011138 72 180 3.0 6.0 0.00 0.00 0.00 50 994.7
20260904010640 72 180 5.0 9.0 0.00 0.00 0.00 50 994.6
20260904010118 72 0 3.0 4.0 0.00 0.00 0.00 50 994.7
20260904005617 72 158 7.0 13.0 0.00 0.00 0.00 50 994.5
20260904005120 72 180 7.0 14.0 0.00 0.00 0.00 49 994.6
20260904004620 72 180 4.0 7.0 0.00 0.00 0.00 49 994.8
20260904004119 72 180 4.0 9.0 0.00 0.00 0.00 49 994.8
20260904003619 72 180 4.0 8.0 0.00 0.00 0.00 49 994.8
20260904003119 73 180 3.0 5.0 0.00 0.00 0.00 49 994.8
20260904002616 73 180 8.0 11.0 0.00 0.00 0.00 49 995.0
20260904002119 73 180 3.0 8.0 0.00 0.00 0.00 48 995.2
20260904001617 73 180 5.0 8.0 0.00 0.00 0.00 48 995.2
20260904001120 74 180 7.0 12.0 0.00 0.00 0.00 48 995.3
20260904000618 74 113 6.0 9.0 0.00 0.00 0.00 48 995.1
20260904000118 74 158 7.0 10.0 0.00 0.00 0.00 49 995.2
20260903235620 74 113 10.0 12.0 0.00 0.00 0.00 49 995.2
20260903235117 74 113 5.0 10.0 0.00 0.00 0.00 49 995.2
20260903234616 74 113 9.0 14.0 0.00 0.00 0.00 49 995.3
20260903234119 74 113 10.0 13.0 0.00 0.00 0.00 51 995.6
20260903233616 74 90 12.0 15.0 0.00 0.00 0.00 53 995.4
20260903233118 74 90 14.0 18.0 0.00 0.00 0.00 53 995.2
20260903232618 74 90 14.0 16.0 0.00 0.00 0.00 54 995.3
20260903232117 74 90 13.0 16.0 0.00 0.00 0.00 55 995.8
20260903231619 74 113 7.0 12.0 0.00 0.00 0.00 55 996.0
20260903231119 73 90 10.0 12.0 0.00 0.00 0.00 55 996.1
20260903230619 73 90 10.0 12.0 0.00 0.00 0.00 56 996.3
20260903230119 72 0 6.0 8.0 0.00 0.00 0.00 56 996.5
20260903225619 72 0 7.0 8.0 0.00 0.00 0.00 56 996.7
20260903225118 73 0 6.0 10.0 0.00 0.00 0.00 55 996.6
20260903224619 73 0 5.0 6.0 0.00 0.00 0.00 56 996.9
20260903224139 73 0 7.0 9.0 0.00 0.00 0.00 55 997.0
20260903223617 73 0.0 1.0 0.00 0.00 0.00 55 997.0
20260903223136 74 0 11.0 15.0 0.00 0.00 0.00 56 996.6
20260903222618 73 0 13.0 15.0 0.00 0.00 0.00 55 996.0
20260903222119 73 0 19.0 23.0 0.00 0.00 0.00 55 995.5
20260903221620 73 0 18.0 22.0 0.00 0.00 0.00 54 995.2
20260903221119 73 0 16.0 22.0 0.00 0.00 0.00 52 995.5
20260903220639 73 0 13.0 20.0 0.00 0.00 0.00 50 996.1
20260903220119 73 0 9.0 15.0 0.00 0.00 0.00 49 996.1
20260903215638 74 0 18.0 23.0 0.00 0.00 0.00 49 996.8
20260903215119 74 0 26.0 33.0 0.00 0.00 0.00 49 996.5
20260903214616 75 0 32.0 38.0 0.00 0.00 0.00 50 995.9
20260903214116 75 0 28.0 37.0 0.00 0.00 0.00 49 996.1
20260903213737 76 0 36.0 44.0 0.00 0.00 0.00 49 995.6
20260903213118 80 0 36.0 45.0 0.00 0.00 0.00 48 995.9
20260903212621 81 0 4.0 5.0 0.00 0.00 0.00 48 994.6
20260903212122 81 0 1.0 2.0 0.00 0.00 0.00 48 994.4
20260903211620 81 0 4.0 5.0 0.00 0.00 0.00 48 994.8
20260903211122 81 0 3.0 4.0 0.00 0.00 0.00 48 994.9
20260903210620 81 0 2.0 3.0 0.00 0.00 0.00 49 994.5